Weather History for Ravenna, OH

Change the Weather History Date:

Friday, November 1, 2013

  Actual Average (KCAK) Record (KCAK)
Temperature  
Mean Temperature 54 °F 47 °F  
Max Temperature 61 °F 55 °F 79 °F (1950)
Min Temperature 47 °F 38 °F 25 °F (1954)
Degree Days  
Heating Degree Days 10 18  
Month to date heating degree days 18  
Since 1 July heating degree days 573  
Cooling Degree Days 0 0  
Month to date cooling degree days 0  
Year to date cooling degree days 652  
Growing Degree Days 4 (Base 50)    
Moisture  
Dew Point 46 °F    
Average Humidity 77    
Maximum Humidity 100    
Minimum Humidity 61    
Precipitation  
Precipitation 0.22 in 0.11 in 1.13 in (1969)
Month to date precipitation 0.11  
Year to date precipitation 33.59  
Snow  
Snow 0.00 in 0.00 in - ()
Month to date snowfall 0.0  
Since 1 July snowfall 0.4  
Since 1 September snowfall 0.4  
Snow Depth -    
Sea Level Pressure  
Sea Level Pressure 29.56 in    
Wind  
Wind Speed 9 mph (WSW)    
Max Wind Speed 21 mph    
Max Gust Speed 31 mph    
Visibility 10 miles    
Events Rain    
T = Trace of Precipitation, MM = Missing Value Source: NWS Daily Summary

Daily Weather History Graph

Daily Weather History Graph

Search for Another Location

Airport:

Trip Planner

Search our weather history database for the weather conditions in past years. The results will help you decide how hot, cold, wet, or windy it might be!

Date:

Astronomy

Nov. 01, 2013 Rise Set
Actual Time 7:56 AM EDT 6:20 PM EDT
Civil Twilight 7:27 AM EDT 6:48 PM EDT
Nautical Twilight 6:55 AM EDT 7:21 PM EDT
Astronomical Twilight 6:23 AM EDT 7:53 PM EDT
Moon 5:46 AM EDT 5:12 PM EDT
Length of Visible Light 11h 20m
Length of Day
10h 23m
Waning Crescent, 4% of the Moon is Illuminated
Nov 1
Waning Crescent
Nov 3
New
Nov 10
First Quarter
Nov 17
Full
Nov 25
Last Quarter

Hourly Weather History & Observations

Time (EDT) Temp. Dew Point Humidity Pressure Visibility Wind Dir Wind Speed Gust Speed Precip Events Conditions
12:16 AM 59.4 °F 59.5 °F 100% 29.35 in 7.0 mi South 9.2 mph 21.9 mph 0.01 in Rain Heavy Rain
12:36 AM 60.4 °F 58.5 °F 93% 29.32 in 10.0 mi SSE 10.4 mph 29.9 mph 0.02 in   Overcast
12:57 AM 60.8 °F 57.6 °F 89% 29.31 in 10.0 mi South 6.9 mph 21.9 mph 0.02 in Rain Light Rain
1:16 AM 60.6 °F 58.3 °F 92% 29.29 in 10.0 mi SSW 9.2 mph 16.1 mph N/A   Light Drizzle
1:36 AM 61.7 °F 56.7 °F 84% 29.28 in 10.0 mi South 5.8 mph 25.3 mph N/A   Drizzle
1:57 AM 61.0 °F 57.6 °F 88% 29.28 in 7.0 mi SSW 10.4 mph 20.7 mph 0.03 in Rain Heavy Rain
2:16 AM 60.3 °F 59.7 °F 98% 29.34 in 5.0 mi WSW 15.0 mph 29.9 mph 0.09 in Rain Heavy Rain
2:36 AM 58.8 °F 57.0 °F 94% 29.34 in 10.0 mi SW 10.4 mph 25.3 mph 0.12 in Rain Rain
2:57 AM 57.7 °F 57.4 °F 99% 29.35 in 10.0 mi SW 6.9 mph - 0.14 in Rain Rain
3:16 AM 57.2 °F 57.2 °F 100% 29.34 in 10.0 mi SSW 4.6 mph - 0.02 in Rain Light Rain
3:36 AM 56.7 °F 56.8 °F 100% 29.36 in 10.0 mi SSW 5.8 mph - 0.02 in   Overcast
3:57 AM 56.5 °F 56.7 °F 100% 29.35 in 10.0 mi SW 8.1 mph - 0.02 in   Overcast
4:17 AM 56.3 °F 56.3 °F 100% 29.36 in 10.0 mi WSW 10.4 mph 16.1 mph N/A   Overcast
4:36 AM 56.3 °F 55.8 °F 98% 29.38 in 10.0 mi SW 11.5 mph 17.3 mph N/A   Overcast
4:56 AM 56.3 °F 54.9 °F 95% 29.37 in 10.0 mi WSW 9.2 mph 20.7 mph N/A   Overcast
5:16 AM 56.3 °F 54.5 °F 94% 29.38 in 10.0 mi WSW 11.5 mph 18.4 mph N/A Rain Light Rain
5:36 AM 55.6 °F 55.8 °F 100% 29.40 in 10.0 mi WSW 11.5 mph 17.3 mph N/A   Drizzle
5:57 AM 55.6 °F 54.5 °F 96% 29.41 in 10.0 mi WSW 11.5 mph 19.6 mph N/A   Overcast
6:16 AM 55.8 °F 52.0 °F 87% 29.44 in 10.0 mi WSW 16.1 mph 24.2 mph N/A   Overcast
6:36 AM 55.4 °F 49.3 °F 80% 29.45 in 10.0 mi WSW 13.8 mph 25.3 mph N/A   Unknown
6:56 AM 54.3 °F 46.8 °F 76% 29.48 in 10.0 mi West 13.8 mph 28.8 mph N/A   Unknown
7:16 AM 52.3 °F 44.1 °F 73% 29.49 in 10.0 mi West 16.1 mph 19.6 mph N/A   Unknown
7:36 AM 51.4 °F 43.7 °F 75% 29.51 in 10.0 mi WSW 12.7 mph 17.3 mph N/A   Scattered Clouds
7:57 AM 51.1 °F 43.0 °F 74% 29.53 in 10.0 mi WSW 10.4 mph 23.0 mph N/A   Mostly Cloudy
8:16 AM 51.3 °F 42.8 °F 73% 29.54 in 10.0 mi WSW 20.7 mph 31.1 mph N/A   Overcast
8:36 AM 50.9 °F 42.4 °F 73% 29.56 in 10.0 mi WSW 16.1 mph 25.3 mph N/A   Overcast
8:57 AM 50.9 °F 42.6 °F 73% 29.58 in 10.0 mi WSW 15.0 mph 23.0 mph N/A   Overcast
9:16 AM 51.3 °F 41.0 °F 68% 29.58 in 10.0 mi WSW 13.8 mph 26.5 mph N/A   Mostly Cloudy
9:36 AM 50.9 °F 40.6 °F 68% 29.59 in 10.0 mi WSW 16.1 mph 26.5 mph N/A   Overcast
9:56 AM 50.2 °F 40.1 °F 68% 29.60 in 10.0 mi WSW 15.0 mph 29.9 mph N/A   Overcast
10:17 AM 50.4 °F 39.9 °F 67% 29.61 in 10.0 mi WSW 13.8 mph 21.9 mph N/A   Overcast
10:36 AM 49.8 °F 39.4 °F 67% 29.62 in 10.0 mi WSW 16.1 mph 25.3 mph N/A   Overcast
10:56 AM 50.0 °F 39.6 °F 67% 29.62 in 10.0 mi West 12.7 mph 24.2 mph N/A   Overcast
11:17 AM 50.0 °F 39.7 °F 68% 29.63 in 10.0 mi SW 13.8 mph 24.2 mph N/A   Overcast
11:36 AM 50.0 °F 39.7 °F 68% 29.64 in 10.0 mi WSW 10.4 mph 21.9 mph N/A   Overcast
11:56 AM 50.5 °F 39.6 °F 66% 29.64 in 10.0 mi WSW 16.1 mph 24.2 mph N/A   Overcast
12:16 PM 51.3 °F 39.7 °F 65% 29.64 in 10.0 mi WSW 9.2 mph 21.9 mph N/A   Overcast
12:36 PM 51.8 °F 39.9 °F 64% 29.65 in 10.0 mi WSW 12.7 mph 20.7 mph N/A   Overcast
12:57 PM 52.2 °F 40.5 °F 64% 29.65 in 10.0 mi WSW 11.5 mph 19.6 mph N/A   Overcast
1:16 PM 53.8 °F 41.0 °F 62% 29.64 in 10.0 mi WSW 9.2 mph 16.1 mph N/A   Overcast
1:36 PM 53.1 °F 40.6 °F 63% 29.65 in 10.0 mi WSW 8.1 mph - N/A   Overcast
1:57 PM 53.2 °F 40.8 °F 63% 29.64 in 10.0 mi WSW 9.2 mph 16.1 mph N/A   Overcast
2:16 PM 53.4 °F 41.0 °F 63% 29.64 in 10.0 mi WSW 12.7 mph 18.4 mph N/A   Overcast
2:36 PM 53.6 °F 40.5 °F 61% 29.64 in 10.0 mi WSW 10.4 mph 17.3 mph N/A   Overcast
2:57 PM 53.2 °F 40.1 °F 61% 29.63 in 10.0 mi WSW 10.4 mph 19.6 mph N/A   Overcast
3:16 PM 53.6 °F 40.5 °F 61% 29.64 in 10.0 mi WSW 8.1 mph - N/A   Overcast
3:36 PM 53.6 °F 41.0 °F 62% 29.64 in 10.0 mi SW 8.1 mph 16.1 mph N/A   Overcast
3:57 PM 53.6 °F 40.6 °F 62% 29.63 in 10.0 mi WSW 8.1 mph 19.6 mph N/A   Overcast
4:16 PM 53.6 °F 41.0 °F 62% 29.64 in 10.0 mi WSW 6.9 mph 17.3 mph N/A   Overcast
4:36 PM 53.2 °F 41.0 °F 63% 29.64 in 10.0 mi WSW 10.4 mph 16.1 mph N/A   Overcast
4:56 PM 53.1 °F 41.0 °F 64% 29.65 in 10.0 mi WSW 8.1 mph - N/A   Overcast
5:17 PM 52.9 °F 41.2 °F 64% 29.66 in 10.0 mi WSW 6.9 mph - N/A   Overcast
5:36 PM 52.9 °F 41.4 °F 65% 29.65 in 10.0 mi West 6.9 mph - N/A   Overcast
5:56 PM 52.3 °F 41.2 °F 66% 29.66 in 10.0 mi WSW 5.8 mph - N/A   Mostly Cloudy
6:17 PM 52.3 °F 41.2 °F 66% 29.66 in 10.0 mi WSW 4.6 mph - N/A   Overcast
6:36 PM 51.4 °F 41.2 °F 68% 29.66 in 10.0 mi Calm Calm - N/A   Overcast
6:56 PM 50.2 °F 41.9 °F 73% 29.67 in 10.0 mi West 3.5 mph - N/A   Overcast
7:16 PM 50.0 °F 42.4 °F 75% 29.68 in 10.0 mi Calm Calm - N/A   Overcast
7:36 PM 49.1 °F 43.0 °F 79% 29.68 in 10.0 mi Calm Calm - N/A   Overcast
7:57 PM 49.1 °F 43.2 °F 80% 29.69 in 10.0 mi Calm Calm - N/A   Overcast
8:16 PM 50.0 °F 41.9 °F 74% 29.69 in 10.0 mi WSW 3.5 mph - N/A   Mostly Cloudy
8:36 PM 50.4 °F 41.9 °F 73% 29.69 in 10.0 mi Calm Calm - N/A   Mostly Cloudy
8:56 PM 50.0 °F 42.3 °F 75% 29.69 in 10.0 mi Calm Calm - N/A   Overcast
9:16 PM 49.8 °F 42.3 °F 75% 29.68 in 10.0 mi Calm Calm - N/A   Overcast
9:36 PM 49.1 °F 42.8 °F 79% 29.68 in 10.0 mi Calm Calm - N/A   Overcast
9:57 PM 49.8 °F 42.4 °F 76% 29.68 in 10.0 mi Calm Calm - N/A   Light Drizzle
10:16 PM 50.2 °F 42.8 °F 76% 29.69 in 10.0 mi SW 4.6 mph - N/A   Drizzle
10:36 PM 49.3 °F 43.5 °F 81% 29.69 in 10.0 mi WSW 5.8 mph - N/A Rain Light Rain
10:57 PM 49.1 °F 43.9 °F 82% 29.69 in 10.0 mi WSW 3.5 mph - 0.01 in   Drizzle
11:16 PM 48.6 °F 44.6 °F 86% 29.69 in 10.0 mi WSW 4.6 mph - N/A   Overcast
11:36 PM 48.2 °F 46.2 °F 93% 29.69 in 10.0 mi SW 3.5 mph - N/A   Drizzle
11:56 PM 47.8 °F 47.5 °F 99% 29.69 in 10.0 mi WSW 3.5 mph - N/A   Overcast